Location: Orange
(33.2833°S, 149.1000°E)
Time: 19:33:03
(UTC+10:00)

Hubble Space Telescope - Visible Passes

Search period start: 15 May 2021 00:00
Search period end: 25 May 2021 00:00
Orbit: 535 x 539 km, 28.5° (Epoch: 14 May)

Date Brightness Start Highest point End Pass type
(mag) Time Alt. Az. Time Alt. Az. Time Alt. Az.
15 May 2.7 18:29:16 10° NNW 18:32:02 17° NNE 18:33:17 15° NE visible
16 May 2.6 18:17:54 10° NNW 18:21:01 21° NNE 18:23:01 15° NE visible
16 May 3.8 19:57:53 10° WNW 19:58:20 13° WNW 19:58:20 13° WNW visible
17 May 2.4 18:06:37 10° NW 18:10:01 24° NNE 18:12:44 13° ENE visible
17 May 3.4 19:46:53 10° WNW 19:48:02 17° WNW 19:48:02 17° WNW visible
18 May 2.2 17:55:27 10° NW 17:59:00 28° NNE 18:02:25 11° ENE visible
18 May 3.0 19:35:54 10° WNW 19:37:44 23° NW 19:37:44 23° NW visible
19 May 2.1 17:44:19 10° NW 17:48:01 31° NNE 17:51:44 10° ENE visible
19 May 2.5 19:24:56 10° WNW 19:27:26 30° NW 19:27:26 30° NW visible
20 May 2.0 17:33:14 10° WNW 17:37:02 35° N 17:40:52 10° ENE visible
20 May 2.0 19:13:59 10° WNW 19:17:08 37° NNW 19:17:08 37° NNW visible
21 May 1.7 19:03:03 10° WNW 19:06:52 40° N 19:06:52 40° N visible
22 May 1.7 18:52:07 10° WNW 18:56:00 38° N 18:56:39 35° NNE visible
23 May 2.0 18:41:13 10° WNW 18:45:01 34° N 18:46:29 26° NNE visible
24 May 2.3 18:30:20 10° WNW 18:34:03 31° NNW 18:36:25 18° NE visible
